STARLINK-32853, 62818

Orbit data source: Space-Track

STARLINK-32853, 62818 is a payload satellite owned by SpaceX/Seattle (US) in LEO that was launched on Fri, 24 Jan 2025 UTC via an FALCON 9 launch vehicle from the Air Force Western Test Range (AFWTR). Payload-class satellites include a variety of spacecraft equipped with specific instruments for various scientific and technological missions. These include communications satellites like Starlink; space stations such as the ISS; scientific satellites like the Hubble; Earth observation satellites from companies like Planet Labs, Umbra, and HawkEye 360; GPS; miniature CubeSats for education and research; and military/defense satellites.

Loading next visibility...
Identifier
62818, 2025-018N
Orbit
LEO
Last TLE update
7 hours ago
Origin
Manufacturer
SpaceX/Seattle
Mission
Operational Commercial Communications
Bus & Motor
STARLINK V2M, Unknown motor
Mass
730 kg wet, ~700 kg dry
Launch date (UTC)
2025-01-24 (5 months ago)
Launch vehicle
FALCON 9
Launch site
Air Force Western Test Range (AFWTR)
Object type
Payload
Rocket body
Debris
Shape & HBR
Box + 2 Pan, 29 m
Radar Cross Section
33.884 m², Large (>1 m²)

Expand to show TLE details & history

TLE from 7 hours ago
0 STARLINK-32853
1 62818U 25018N   25182.89058152  .00017727  00000-0  60930-3 0  9992
2 62818  53.1584  34.2712 0001051  85.7760 274.3361 15.30195833 24787
Epoch: 2025-07-01T21:22Z
TLE epoch observation values (Epoch: 2025-07-01T21:22:26.243Z)
Latitude
Longitude
153.48231°
Altitude
476.073 km
Speed
7.629 km/s
True Right ascension
02h 17m 05s
True Declination
0° 00' 00"
Sunlit
Object was in daylight at epoch
Visualization orbit readout
Latitude
46.4952°
Longitude
-156.06298°
Altitude
479.552 km
Speed
7.632 km/s
Apparent Right ascension
04h 36m 46s
Apparent Declination
5° 24' 51"
Sunlit
Object is in daylight
Visualization observer readout
Local Sidereal Time
15:36:50
Azimuth
339.531° N
Elevation
-42.615°
Doppler factor
1
Orbital elements
Apogee altitude
476.205 km
Perigee altitude
474.764 km
Semi-major axis
6,853.621 km
Eccentricity
0.00011
Inclination
53.1584°
RAAN
34.2712°
Arg. of periapsis
85.776°
True anomaly
Unknown
Mean anomaly
274.3361°
Eccentric anomaly
Unknown
Mean motion
3.82528 °/min
Orbital period
94.11 mins
BSTAR
0.0006093
Loading maneuver chart data...
Loading SW <> Apogee altitude chart data...
Loading historical data...
Loading historical data...
Loading historical data...
Loading historical data...
Loading historical data...
Loading historical data...
Loading historical data...

STARLINK-32853 Visibility forecast

Observer location: undefined°, undefined°

Span
Click to sort rows by Start time (UTC) header in descending order
Start Az.
Max El. time (UTC)
Max El. Az.
Max El.
End time (UTC)
End Az.
6 mins2025-07-02 16:20:31.531Z207.301° SW2025-07-02 16:23:31.531Z151.998° SSE34.829°2025-07-02 16:26:31.531Z65.722° ENE
4 mins2025-07-02 18:00:31.531Z297.03° NW2025-07-02 18:01:31.531Z321.563° NNW23.292°2025-07-02 18:04:31.531Z25.942° NE
5 mins2025-07-02 22:56:31.531Z330.898° NNW2025-07-02 22:58:31.531Z21.402° NNE32.933°2025-07-02 23:01:31.531Z101.003° ESE
|